Portada
METAR-TAF:

METAR-TAF

Aeroports :

Albertus Airport

Freeport, Illinois, Estats Units d'Amèrica

latitud: 42-14-47N, longitud: 089-34-56W, altitud: 262 m

Observació

L'informe es va fer fa 17 minuts, a les 00:35 UTC
Vent 11 kt del Nord amb ràfegues de 14 kt
Temperatura -11°C
Humitat 72%
Pressió 1021 hPa
Visibilitat: 16.1 km
Núvols disperses a una alçada de 2600 ft

METAR: KFEP 200035Z AUTO 01011G14KT 10SM SCT026 M11/M15 A3015 RMK AO2 T11121149

Hora: 18:52 (00:52 UTC)


TAF: manca

Observacions i pronòstics meteorològics de més de 4000 aeroports (METAR i TAF).

Les estacions disponibles són els punts grocs i vermells al mapa.

Posi el ratolí al punt desitjat per veure el nom de l'estació.

Feu clic per veure les observacions i els pronòstics meteorològics.

Per canviar el mapa: feu clic els botons verds amb una creu de color negre per apropar; al botó verd amb un guió per allunyar la imatge; o en les fletxes verdes per a mapes adjacents.


METAR-TAF: